Regional Weather Roundup
Issued by NWS Sioux Falls, SD

Home | Current Version | Previous Version | Text Only | Print | Product List | Glossary On
Versions: 1 2 3 4 5 6 7 8 9 10 11 12 13 14 15 16 17 18 19 20 21 22 23 24 25 26 27 28 29 30 31 32 33 34 35 36 37 38 39 40 41 42 43 44 45 46 47 48 49 50
000
ASUS43 KFSD 281802
RWRFSD

WEATHER ROUNDUP FOR SE SOUTH DAKOTA/SW MINNESOTA/NW IOWA
NATIONAL WEATHER SERVICE SIOUX FALLS SD
100 PM CDT TUE MAR 28 2017

NOTE: "FAIR" INDICATES FEW OR NO CLOUDS BELOW 12,000 FEET WITH NO
SIGNIFICANT WEATHER AND OR OBSTRUCTIONS TO VISIBILITY.


SDZ038>040-050-052>070-281900-
SOUTHEAST SOUTH DAKOTA

CITY           SKY/WX    TMP DP  RH WIND       PRES   REMARKS
BROOKINGS      MOSUNNY   55  38  52 SE7         N/A
CHAMBERLAIN    CLOUDY    56  41  56 E5        30.10F
6HR MIN TEMP:  42; 6HR MAX TEMP:  56;

HURON          CLOUDY    55  39  54 SE8       30.14S
6HR MIN TEMP:  33; 6HR MAX TEMP:  56;

MADISON        FAIR      52  45  76 SE7       30.15S
MITCHELL       CLOUDY    57  39  51 MISG      30.14F
6HR MIN TEMP:  32; 6HR MAX TEMP:  57;

SIOUX FALLS    CLOUDY    56  37  49 CALM      30.13F
6HR MIN TEMP:  30; 6HR MAX TEMP:  57;

WINNER         LGT RAIN  50  44  80 E12       30.09F
YANKTON        CLOUDY    54  39  58 E9G16     30.12S
$$

MNZ071-072-080-081-089-090-097-098-281900-
SOUTHWEST MINNESOTA

CITY           SKY/WX    TMP DP  RH WIND       PRES   REMARKS
FAIRMONT       SUNNY     54  41  61 SE9       30.15F
JACKSON          N/A     55  37  50 E9        30.15S
LUVERNE        SUNNY     55  34  44 SE6       30.14F
MARSHALL       SUNNY     58  37  45 SE12      30.15F
6HR MIN TEMP:  34; 6HR MAX TEMP:  58;

MONTEVIDEO     MOSUNNY   59  37  44 E7        30.18S
PIPESTONE      MOSUNNY   55  30  38 SE6       30.14S
REDWOOD FALLS  SUNNY     60  35  39 NE7       30.15S
TRACY          SUNNY     58  38  47 NE6       30.15S
WINDOM         SUNNY     57  37  47 NE6       30.15S
WORTHINGTON    MOSUNNY   55  38  52 E9G17     30.15F
$$

IAZ001>003-012>014-020>022-031-032-NEZ013-014-SDZ071-281900-
NORTHWEST IOWA

CITY           SKY/WX    TMP DP  RH WIND       PRES   REMARKS
CHEROKEE       SUNNY     56  36  46 E12G18    30.13S
DENISON        CLOUDY    50  41  71 E8        30.14S
ESTHERVILLE    SUNNY     56  40  55 NE12      30.14S
LE MARS        SUNNY     59  39  47 E8G14     30.13F
ORANGE CITY    SUNNY     57  39  51 E9        30.13F
SHELDON        MOSUNNY   55  39  54 E12       30.13S
SIOUX CITY     MOSUNNY   57  40  52 NE12      30.12F
6HR MIN TEMP:  27; 6HR MAX TEMP:  57;

SPENCER        SUNNY     58  37  45 E12       30.14R
6HR MIN TEMP:  29; 6HR MAX TEMP:  58;

STORM LAKE     SUNNY     54  37  54 E12G17    30.12S
$$

ABBREVIATIONS USED IN REMARKS
   TC - TEMPERATURE IN CELSIUS
  WCI - WIND CHILL INDEX
   HX - HEAT INDEX
  VSB - VISIBILITY





USA.gov is the U.S. government's official web portal to all federal, state and local government web resources and services.